Wind_Speed
10 11 11 11 12 11 10 10 11 12 12 13 13 12 11 10 10 10 10 10 11 10 10 10 9 10 10 10 12 12 12 13 13 13 17 16 12 12 14 11 7 9 10 5 7 11 12 14 14 13 12 11 12 12 11 11 11 8 7 7 6 7 5 4 6 3 4 8 5 6 4 4 9 11 7 9 7 9 11 8 9 8 7 11 17 16 18 19
11 11 11 11 12 10 10 10 11 11 11 12 13 12 11 11 10 10 10 10 10 10 10 9 9 10 9 10 10 11 12 13 15 17 20 19 15 15 14 13 10 9 10 8 10 13 13 14 14 13 13 12 12 10 10 11 11 9 7 6 7 6 2 2 3 4 4 5 4 5 3 2 5 10 11 11 9 11 10 10 11 10 10 14 19 16 17 18
11 11 11 11 11 11 11 11 12 13 13 14 14 13 12 11 10 9 10 9 9 9 10 9 8 9 9 9 9 10 10 11 17 18 18 18 17 17 15 14 13 12 10 10 12 14 12 12 12 13 14 12 11 10 9 10 10 11 9 6 8 5 2 3 3 5 4 3 2 3 3 3 4 5 10 11 9 12 10 10 13 12 13 14 18 16 15 16
12 12 12 11 11 11 11 11 13 14 15 15 15 13 13 11 10 10 9 8 9 10 10 8 7 8 8 7 7 6 7 12 14 11 14 16 15 16 16 15 15 15 13 11 12 13 12 11 12 14 14 11 11 11 9 10 10 10 9 9 4 1 0 5 5 3 4 2 2 3 3 6 6 4 7 8 8 9 9 11 11 13 16 13 16 15 14 15
13 13 12 12 12 12 11 11 12 14 14 14 14 13 13 11 10 9 9 9 9 10 9 8 6 7 7 6 5 3 4 6 3 11 14 12 12 14 16 16 16 16 16 13 12 14 13 12 13 14 14 11 10 10 10 12 11 7 10 13 6 2 4 7 8 4 3 2 1 2 2 3 5 7 8 9 6 3 6 11 9 15 18 13 15 17 16 16
14 14 13 12 13 13 12 12 13 14 14 14 13 12 12 11 10 10 9 9 9 10 9 7 5 6 6 4 4 3 6 4 4 6 10 9 12 13 12 14 16 17 17 15 15 15 15 15 15 15 13 11 10 9 11 14 13 7 8 13 9 5 5 6 8 6 4 4 2 1 1 2 5 8 10 9 2 6 5 10 8 15 16 13 15 15 17 16
14 14 14 13 13 14 14 14 13 14 14 13 12 10 10 10 11 10 9 9 9 9 8 7 5 5 5 4 4 6 13 13 4 6 9 9 12 10 9 10 14 19 19 18 18 17 17 17 17 16 13 11 10 10 12 13 14 10 8 10 9 9 7 4 7 7 7 5 2 1 2 6 6 7 10 5 4 6 7 9 10 14 13 14 14 12 15 16
14 14 15 14 14 15 15 14 14 14 13 11 9 9 10 10 11 10 9 9 8 9 8 7 5 5 5 5 4 8 17 19 8 7 9 9 9 7 7 6 10 19 22 20 20 19 18 18 19 17 12 10 10 10 12 11 13 13 10 7 8 10 9 7 7 7 8 6 4 3 4 7 4 5 11 7 7 8 8 9 10 14 14 14 14 13 15 15
14 14 15 15 15 16 15 15 15 13 12 10 9 9 10 11 12 11 10 9 8 9 8 7 6 6 6 5 5 9 13 13 7 8 9 6 7 7 6 5 8 17 22 21 20 19 19 19 20 18 13 11 11 11 12 10 9 13 14 10 7 9 10 9 10 10 9 8 6 6 7 7 4 5 9 8 7 8 8 9 10 14 15 14 12 11 13 14
15 15 15 16 16 17 17 16 15 13 12 11 10 11 12 11 12 12 11 9 9 9 9 8 6 7 7 4 8 8 8 8 4 8 11 9 9 9 7 7 8 15 21 21 21 21 20 18 18 18 15 12 11 10 12 11 5 7 14 14 10 10 10 11 12 13 11 9 8 8 8 8 9 9 7 9 10 8 10 10 10 13 14 13 11 9 11 13
16 16 16 16 16 17 18 17 15 13 12 12 11 12 12 13 13 13 11 9 9 9 9 8 6 9 7 5 12 9 5 7 4 4 10 9 8 8 8 10 10 15 20 21 21 22 20 18 15 15 13 11 11 11 13 14 8 4 9 12 12 10 9 12 13 13 11 10 11 10 8 9 12 10 3 10 12 9 10 10 11 13 14 12 9 8 9 11
16 16 16 16 16 16 17 16 14 13 13 12 12 12 13 14 14 14 11 9 8 9 9 8 7 9 5 9 18 14 4 4 4 3 5 5 6 9 10 11 13 16 19 20 21 20 19 17 14 15 10 8 11 9 10 16 14 7 7 10 12 11 10 13 14 13 12 11 15 13 7 9 12 9 7 10 10 8 9 9 11 13 16 12 8 9 9 10
17 17 17 16 15 16 17 15 12 12 12 11 11 12 13 14 13 13 12 10 9 9 9 8 7 7 5 13 20 18 10 9 8 8 8 6 5 7 9 11 13 16 17 18 19 18 18 15 13 17 11 8 10 3 4 14 15 9 9 9 10 11 11 15 16 16 15 11 16 14 8 9 13 11 11 8 8 8 9 9 11 12 17 15 11 10 9 9
17 17 16 15 14 15 16 13 11 11 11 11 12 13 14 15 15 14 13 10 9 10 8 7 6 5 8 15 17 17 17 16 15 15 14 11 9 7 7 9 11 14 15 15 16 17 17 13 12 16 14 13 10 3 4 12 12 9 9 9 8 8 9 16 18 17 16 11 16 14 8 9 13 13 13 10 8 7 8 9 10 10 15 17 14 10 9 10
16 16 16 15 14 14 15 12 11 11 11 12 13 15 15 16 16 15 14 11 9 9 5 4 5 4 10 17 16 16 19 18 18 18 17 14 14 12 9 9 11 12 13 13 14 14 14 12 12 14 15 16 11 5 8 9 8 9 9 8 8 8 9 17 20 18 15 12 17 16 8 6 11 12 13 12 9 8 7 7 9 9 15 13 14 12 9 10
16 16 15 15 13 13 14 12 11 11 12 13 15 16 16 15 15 14 15 12 10 6 3 3 6 7 9 10 9 12 16 19 20 18 18 17 15 14 12 10 12 12 12 12 11 12 12 12 14 14 14 13 10 7 9 8 8 9 9 8 10 10 9 15 18 19 18 14 16 18 8 7 9 10 12 12 11 10 8 8 10 11 16 11 10 13 12 9
16 16 15 15 14 14 14 13 12 11 13 15 16 17 15 13 12 12 13 11 8 4 5 5 6 8 11 6 6 13 16 17 16 15 18 19 16 14 13 13 14 15 14 12 11 13 14 14 13 12 12 11 9 9 9 9 9 8 9 8 10 13 9 12 15 18 21 15 15 19 10 9 9 9 11 10 10 12 11 10 9 11 14 12 9 11 12 10
16 16 15 15 15 15 14 13 13 11 14 16 15 13 9 7 7 7 8 7 6 3 5 8 7 7 11 15 14 12 16 17 14 15 17 19 18 15 15 16 16 17 16 13 14 16 15 15 13 10 10 10 10 11 9 9 9 9 10 9 9 13 10 12 14 16 21 16 14 19 12 11 11 9 10 8 8 8 7 6 7 7 10 14 12 8 10 10
17 16 15 15 15 15 14 13 13 12 15 14 11 9 5 2 2 4 7 9 13 9 5 11 18 9 3 12 19 8 9 14 13 14 16 19 20 16 16 16 17 19 18 12 14 18 15 13 12 10 10 11 12 13 12 10 11 12 13 10 9 11 10 11 13 16 19 15 13 18 13 11 11 9 10 9 8 7 7 6 6 6 7 13 14 8 9 11
17 16 15 15 15 15 14 13 13 12 14 12 8 6 4 6 5 8 14 17 20 17 11 14 27 21 5 5 14 9 7 10 12 15 17 20 21 19 18 18 18 19 16 11 13 18 16 11 11 12 12 14 15 16 17 13 9 11 14 12 10 10 10 10 14 18 19 13 13 18 14 12 10 10 10 11 12 10 10 8 6 7 7 11 13 10 11 12
17 16 15 15 14 15 14 13 12 13 13 11 7 8 10 11 5 4 12 19 24 25 23 16 20 24 15 3 6 7 8 11 14 17 18 21 23 20 20 20 17 14 14 15 13 15 15 11 13 16 15 16 17 16 18 13 9 9 12 11 10 10 10 9 11 16 18 13 12 17 15 12 10 10 10 11 14 13 12 11 8 9 11 14 14 13 13 14
17 16 15 14 14 14 13 12 13 13 12 8 9 13 13 9 6 5 3 11 21 26 28 24 19 22 19 11 6 5 9 13 16 18 20 24 25 20 20 20 15 12 15 16 12 12 13 12 15 18 16 16 16 15 17 13 9 9 9 10 9 10 10 9 11 13 15 11 9 12 11 10 9 9 9 11 15 15 14 13 12 12 15 16 15 15 15 14
16 15 15 14 14 14 13 12 13 13 11 8 11 15 14 10 7 6 7 10 14 21 27 26 25 23 21 19 13 9 12 13 16 20 23 25 27 23 20 18 15 14 16 16 13 11 10 12 16 17 16 16 15 16 17 11 9 9 9 10 8 11 13 9 11 14 14 9 7 11 9 8 9 10 8 12 18 18 16 15 15 16 16 16 15 15 15 14
15 15 15 13 13 13 12 13 13 12 10 10 13 15 12 9 7 6 9 12 11 15 24 26 26 25 24 21 16 15 15 13 15 20 25 25 27 24 19 18 17 15 16 18 17 14 11 13 18 18 17 17 15 17 17 11 8 11 11 10 9 13 13 9 11 13 13 11 9 13 9 6 9 11 9 11 17 17 16 15 15 15 15 15 15 15 15 13
15 14 13 13 12 12 12 13 13 11 9 11 14 13 12 10 6 5 7 10 10 12 19 23 24 24 25 21 16 18 16 15 16 18 25 27 26 21 17 18 17 13 17 21 18 14 12 13 18 19 18 19 17 15 16 12 9 10 12 12 11 12 12 13 15 13 10 10 11 14 10 7 11 13 11 9 11 13 14 13 13 13 13 13 15 14 12 12
14 13 13 12 12 11 10 10 8 7 9 12 11 7 8 8 5 4 5 6 8 10 15 20 19 19 24 22 19 18 13 15 19 16 22 27 27 21 15 15 14 14 17 17 12 9 11 13 16 18 18 20 18 14 16 15 9 8 11 15 14 12 12 14 16 13 8 9 12 15 10 6 11 12 12 11 10 11 11 11 11 11 12 13 13 11 11 10
13 13 12 12 11 9 8 7 3 4 8 9 7 6 7 7 4 5 5 5 6 9 16 19 16 17 24 24 23 18 10 13 19 18 20 25 27 24 16 13 13 14 14 12 9 8 11 14 16 18 18 17 15 12 16 17 12 7 12 16 15 11 12 13 14 12 8 8 12 16 14 7 8 10 13 14 11 11 10 9 10 11 12 12 12 11 11 10
12 12 11 11 12 10 10 9 6 6 6 4 7 7 6 4 4 4 4 5 4 10 13 16 14 15 22 25 28 23 12 15 19 17 20 24 27 24 16 15 15 15 15 12 9 9 12 15 16 18 16 13 13 13 15 18 14 9 12 15 12 9 13 14 12 11 9 9 9 14 15 9 7 9 11 14 13 11 11 8 8 10 11 11 11 11 11 11
12 12 11 11 11 10 10 10 9 8 4 2 6 7 6 5 4 4 5 5 6 9 11 15 14 15 21 24 27 27 19 16 17 18 22 23 26 22 14 17 18 15 17 15 11 10 12 15 16 17 14 12 13 14 16 17 15 13 13 15 12 10 11 11 10 10 9 10 9 12 15 11 7 9 10 12 13 11 10 8 8 9 10 11 11 10 10 10
12 12 12 11 10 9 9 10 13 12 6 4 6 6 5 6 5 5 6 5 6 9 12 15 15 18 23 20 20 25 22 16 18 23 24 23 27 23 17 19 18 13 15 16 13 11 11 12 13 14 13 12 14 15 15 17 17 16 11 13 12 10 9 8 9 10 9 10 11 13 15 13 7 8 9 9 11 14 11 9 8 10 11 10 11 10 10 10
13 13 12 10 10 8 7 7 10 11 9 7 7 7 6 5 5 6 7 5 4 9 11 12 15 20 23 19 16 21 21 15 18 23 20 18 22 21 16 16 15 13 13 13 13 13 12 12 11 13 15 15 13 14 15 16 19 17 9 9 11 9 8 8 8 9 9 10 13 15 18 18 10 5 7 6 12 16 12 9 9 10 11 10 10 9 9 9
12 12 11 11 11 10 9 5 4 9 11 8 8 10 7 5 6 7 6 5 4 6 9 12 16 18 21 20 16 20 20 14 17 21 17 15 16 15 14 13 13 13 12 12 13 14 13 12 13 14 18 18 13 12 13 14 16 14 10 11 11 9 8 8 9 9 9 10 11 15 19 15 4 3 11 15 15 15 14 12 11 11 12 11 10 9 9 9
11 11 11 11 12 12 11 6 4 9 10 7 9 9 6 5 7 9 8 6 3 2 6 12 17 18 20 19 16 20 20 15 17 19 17 18 15 15 17 18 18 15 12 13 13 12 11 12 15 15 15 18 16 12 11 11 13 13 12 11 10 9 9 10 9 9 9 9 9 14 17 10 6 7 12 17 17 18 19 15 12 12 12 11 10 9 9 9
8 10 10 12 13 12 11 8 6 7 6 7 9 8 6 6 7 10 10 6 4 2 6 9 16 19 19 17 16 19 18 15 18 18 17 18 15 14 17 20 23 18 11 13 12 12 13 11 14 15 12 17 19 14 12 12 12 13 12 12 10 9 8 9 9 9 10 9 8 12 11 6 7 7 11 16 19 21 21 17 13 12 11 10 10 9 9 9
7 8 9 11 13 12 11 10 10 8 7 9 8 6 8 8 7 10 8 2 4 6 6 6 12 18 17 15 17 21 18 14 19 19 15 16 14 14 15 17 22 20 12 12 9 11 15 11 13 16 13 17 18 14 15 14 11 11 12 11 11 10 9 8 7 5 6 8 8 7 2 4 5 9 14 16 17 18 18 17 13 11 10 9 9 9 8 8
6 7 9 11 12 13 12 12 11 10 10 10 8 7 9 7 4 2 2 2 1 5 5 5 10 14 14 13 16 23 21 15 18 17 13 17 16 17 17 14 20 22 15 12 8 9 13 10 15 19 14 17 18 14 16 15 9 9 11 12 11 12 11 8 6 3 4 8 9 6 5 6 6 7 12 15 14 14 15 15 13 12 11 10 9 9 9 9
6 7 9 10 11 12 13 13 12 11 11 10 7 7 7 7 3 2 4 4 1 3 5 6 9 12 13 13 14 21 22 16 17 16 13 16 16 18 20 17 20 24 19 14 9 9 11 9 15 21 15 17 21 18 18 17 13 9 10 11 10 12 12 8 7 7 7 9 8 9 9 9 7 6 10 15 15 13 13 14 14 13 12 10 10 9 9 9
5 7 8 9 9 11 14 14 13 13 11 9 8 9 7 7 5 2 5 6 1 3 6 5 8 12 14 13 14 21 21 15 16 16 13 13 14 19 22 17 20 25 23 18 10 9 12 7 11 20 17 16 20 18 15 16 18 14 11 12 10 11 12 9 7 8 10 9 8 10 12 9 7 8 12 16 16 16 14 14 14 14 12 12 11 10 9 9
5 7 8 9 9 11 15 15 15 14 11 7 8 9 6 7 11 8 4 3 0 3 5 1 5 11 14 13 13 19 21 16 15 15 13 11 12 19 22 17 18 23 24 20 10 8 11 7 8 16 19 16 15 14 11 12 17 17 13 13 11 9 10 9 8 7 9 9 8 10 11 7 5 9 16 17 16 17 16 13 13 13 13 12 11 10 10 9
6 6 6 10 11 11 15 15 15 13 9 8 8 6 5 8 12 9 3 3 3 2 1 3 5 8 13 15 14 16 18 16 16 14 12 12 12 17 22 18 17 21 25 22 13 9 10 7 7 13 17 15 11 12 14 14 15 13 12 12 11 9 9 9 9 8 8 9 8 8 9 4 2 3 13 17 15 16 16 13 13 14 14 12 12 11 10 10
6 3 6 12 12 13 16 14 11 10 7 8 8 7 8 8 6 5 3 2 2 2 2 4 8 8 8 11 13 15 14 13 15 13 10 13 13 11 19 20 17 19 22 19 14 10 8 7 8 10 13 14 11 14 18 17 16 13 10 11 12 11 10 10 10 10 9 8 8 8 6 3 6 3 7 12 12 15 17 16 15 15 15 14 13 11 11 10
5 2 7 13 14 16 16 10 8 9 8 8 8 8 8 7 5 4 4 3 1 3 4 6 8 8 6 8 10 15 15 12 15 14 9 14 13 10 18 25 23 21 19 14 14 12 7 6 9 10 11 13 15 18 19 17 17 15 12 12 12 11 11 10 9 10 9 8 10 8 5 5 5 5 5 11 14 17 19 18 18 17 15 15 14 12 12 11
3 2 8 11 14 16 13 7 7 9 8 8 9 10 9 7 6 5 3 2 1 3 5 6 8 7 5 7 9 13 17 13 14 15 11 13 14 12 20 27 24 22 17 12 13 12 5 5 8 9 10 12 13 15 15 13 13 14 13 13 13 12 13 11 8 8 8 9 10 6 5 4 3 6 10 16 20 20 18 18 18 18 16 15 14 13 12 11
5 7 8 9 12 13 11 6 5 8 7 8 9 10 10 9 7 6 5 4 2 4 6 7 7 6 4 5 8 11 14 12 13 16 12 12 13 15 23 26 22 19 15 11 11 11 6 7 8 8 9 10 8 9 13 12 11 11 11 14 15 15 16 13 10 8 7 10 12 7 3 5 5 6 9 15 18 18 17 17 17 17 17 15 14 13 12 11
5 8 9 10 12 11 9 6 4 5 6 8 9 9 8 8 7 6 7 5 5 7 8 7 7 7 6 6 7 9 13 13 12 13 12 10 11 12 20 25 20 17 17 17 15 12 7 8 8 8 11 12 10 9 10 11 10 9 11 16 18 19 20 14 9 8 7 10 13 7 5 7 9 11 11 13 15 15 16 17 16 17 17 16 15 13 12 11
3 4 7 10 10 11 12 10 9 7 5 6 7 8 10 9 6 4 6 8 9 10 9 8 9 8 8 8 7 7 12 14 11 10 12 10 9 10 17 23 22 18 18 18 16 12 7 6 5 5 6 5 8 12 13 12 12 12 15 18 17 17 18 14 10 8 7 9 8 5 14 15 12 13 13 13 14 14 15 16 17 17 17 15 14 13 13 12
4 2 7 8 8 10 11 12 11 7 4 5 4 4 9 9 4 3 5 6 7 8 8 9 10 9 8 8 7 6 11 14 12 11 11 10 8 11 16 21 19 13 16 16 16 11 6 5 4 2 2 2 5 9 14 14 16 16 16 16 14 14 14 11 10 6 3 5 3 8 18 19 14 14 14 13 13 13 14 17 17 17 17 16 15 14 14 13
2 2 7 7 4 6 7 8 9 5 3 6 3 3 6 9 6 4 4 6 7 7 7 7 10 12 10 8 8 7 8 11 13 13 11 10 11 12 15 19 16 12 13 15 14 10 6 5 5 4 6 4 2 4 10 13 15 16 16 14 13 13 11 10 9 4 4 1 5 11 15 16 15 14 14 13 15 15 16 17 18 18 17 16 15 15 14 14
3 3 5 5 2 4 4 3 4 4 1 3 3 2 5 7 7 6 5 5 6 8 9 8 9 12 12 10 8 7 5 5 11 11 5 5 9 11 12 16 14 12 13 13 11 9 6 5 7 7 8 7 5 5 8 8 6 7 10 11 10 11 12 11 8 2 6 11 14 16 16 15 13 13 14 15 17 19 18 18 18 18 17 16 15 15 14 13
4 2 1 0 4 5 0 2 1 2 1 3 2 3 5 7 8 8 6 6 6 7 9 11 11 11 11 10 10 8 4 6 10 10 5 2 7 9 9 10 12 13 14 12 9 7 5 4 8 9 7 7 8 8 7 8 9 9 7 7 7 8 9 9 8 11 14 15 17 20 19 13 11 15 18 18 18 19 19 19 18 17 16 16 15 14 14 13
6 5 4 3 4 2 3 4 4 1 1 0 2 3 4 7 9 8 7 8 10 9 9 11 11 9 9 11 11 7 2 5 6 9 7 6 8 9 7 7 12 14 14 12 8 6 5 5 8 9 7 6 9 11 13 14 15 14 11 8 6 6 8 9 8 9 14 18 19 17 13 9 11 17 19 18 19 19 18 18 18 17 16 15 15 15 13 12
6 4 3 3 3 1 3 3 4 1 2 4 7 7 6 8 11 10 7 7 9 12 10 8 6 6 7 9 7 2 2 4 6 9 7 10 8 9 9 10 14 14 11 10 8 6 8 7 6 7 7 7 9 11 13 14 12 9 8 5 2 5 10 11 11 11 13 16 12 8 9 12 15 18 17 16 18 18 17 17 17 17 16 15 15 14 13 13
Wind_Direction
316 311 306 305 310 313 308 302 297 296 297 298 295 289 286 284 276 269 268 263 264 268 269 273 277 276 276 280 283 280 279 277 270 265 260 253 241 233 232 238 235 210 212 198 173 190 188 196 202 199 206 202 214 221 200 209 223 219 233 235 228 235 223 178 176 181 76 91 92 107 156 241 151 168 167 166 188 143 156 158 122 115 97 103 112 124 134 136
324 318 315 309 306 308 306 303 301 298 295 298 298 289 281 283 281 270 267 262 261 263 265 272 276 277 278 279 286 286 284 281 279 272 260 254 244 238 233 228 221 207 202 189 190 195 190 198 197 196 207 205 207 204 191 200 214 220 230 231 229 238 192 116 89 70 56 80 77 105 143 264 152 156 160 181 182 157 169 157 148 134 116 116 118 132 136 131
327 324 324 319 310 304 300 298 295 292 289 292 294 289 279 278 281 274 266 261 258 257 261 264 268 276 276 279 288 290 293 293 286 274 257 253 246 238 234 225 215 206 193 186 200 201 200 203 193 201 212 211 201 189 194 194 202 224 234 236 233 243 107 99 59 62 59 60 57 90 144 178 135 143 171 193 173 170 187 160 162 146 133 130 122 133 136 132
326 325 325 325 321 313 304 299 298 297 292 287 285 286 284 280 283 281 269 261 254 251 255 257 262 269 270 280 283 290 318 304 279 237 227 245 244 237 233 223 215 210 195 188 210 211 213 213 198 209 219 222 205 195 208 188 192 219 225 239 246 351 212 174 174 132 91 38 28 97 179 165 150 168 186 198 169 184 195 163 175 153 136 137 133 140 142 139
323 323 322 321 321 319 311 304 302 302 302 295 284 281 281 280 284 287 275 261 252 248 250 251 256 261 264 271 269 281 314 298 229 185 212 233 232 230 229 222 214 209 200 197 214 216 218 218 208 214 226 233 206 200 219 198 206 228 223 248 289 354 234 172 165 158 127 183 152 167 204 135 165 184 192 206 172 184 185 159 174 146 133 145 151 150 145 141
321 321 320 319 318 320 316 311 307 302 303 297 288 284 283 280 279 284 282 266 252 250 247 243 244 251 257 251 243 232 245 264 100 178 224 216 213 211 213 218 210 202 198 203 213 212 216 216 211 214 222 235 213 203 220 202 212 238 222 240 266 262 232 158 160 160 160 196 191 220 101 127 207 177 182 216 117 49 113 134 123 117 127 150 151 148 143 141
318 318 317 318 317 318 317 316 314 309 305 293 287 290 288 285 280 281 285 273 254 248 244 242 232 234 244 228 235 231 244 261 276 258 246 202 197 187 188 207 202 198 194 202 210 207 211 211 212 215 217 231 221 211 220 204 205 233 236 222 227 235 231 179 173 169 178 203 190 253 144 175 213 163 168 200 98 87 109 115 105 113 138 152 149 155 143 136
314 316 316 316 315 316 317 316 317 317 312 294 281 286 288 285 281 282 283 274 257 247 240 238 219 215 224 199 234 244 242 249 247 250 245 208 194 180 187 200 195 194 194 203 207 205 209 211 212 215 220 228 225 218 218 206 203 225 244 231 210 220 225 212 202 188 189 201 191 197 184 179 202 162 164 158 120 123 124 122 124 134 145 141 147 159 137 129
308 312 313 314 314 315 316 315 315 316 312 297 278 275 281 282 282 282 278 271 256 247 237 231 213 203 200 182 240 258 240 233 221 229 234 217 216 218 213 210 198 191 196 205 206 206 209 212 214 216 229 235 233 226 212 207 209 215 228 234 216 210 215 213 207 198 194 196 187 184 186 170 151 169 163 147 130 130 137 139 144 148 143 133 143 150 130 127
303 306 309 311 312 313 315 314 312 309 305 295 280 272 273 275 280 279 274 269 255 248 238 226 208 188 182 203 245 246 223 211 213 234 237 237 237 241 227 209 200 192 199 206 206 207 209 214 216 220 238 250 250 236 210 208 213 207 221 227 223 216 206 204 205 197 195 194 189 189 186 157 160 194 183 148 145 146 156 151 156 157 139 131 141 143 126 125
300 302 305 309 309 312 315 315 310 303 301 292 280 276 275 273 277 278 273 267 254 249 240 228 208 188 183 240 241 230 221 213 203 231 243 241 231 229 215 206 205 200 203 206 206 208 211 216 218 222 234 247 248 239 218 217 231 228 226 226 219 225 208 202 208 195 197 194 187 196 179 150 173 204 171 136 147 162 168 157 169 160 124 115 123 121 114 119
296 297 302 306 306 311 314 313 308 301 300 288 275 275 277 276 275 275 272 265 258 250 240 229 208 190 202 255 235 221 210 201 196 215 231 223 211 214 211 210 210 206 206 208 209 208 212 216 222 226 221 229 233 233 223 217 231 238 226 229 209 216 218 206 208 197 202 191 180 198 184 161 186 182 116 126 143 164 177 164 178 158 123 120 119 106 97 111
292 293 298 301 304 312 314 312 305 300 298 284 271 271 275 275 271 271 270 265 257 248 241 232 207 188 239 257 236 226 233 236 246 250 227 211 214 220 220 215 207 210 212 212 211 207 212 214 222 229 222 230 224 216 225 205 219 226 212 234 208 204 216 204 204 197 199 186 173 195 196 176 187 159 131 145 146 162 186 176 184 162 134 137 129 113 104 105
288 291 296 298 301 311 314 310 301 298 296 288 277 272 273 271 270 271 267 260 250 244 243 230 204 184 240 255 248 238 240 246 251 244 231 223 222 222 227 216 202 209 214 216 215 205 209 209 218 231 226 234 230 158 206 199 206 220 207 229 222 210 204 193 199 195 191 177 171 196 218 184 170 146 144 160 156 175 190 176 185 164 130 132 127 123 121 106
285 290 293 295 300 310 314 309 297 292 290 288 282 277 276 274 276 273 263 254 246 240 228 218 206 202 251 266 265 245 235 238 239 232 225 222 222 222 222 211 199 203 205 210 212 198 197 200 211 229 218 227 244 211 209 204 198 214 211 213 219 227 196 182 192 192 188 175 175 203 225 158 140 136 151 161 164 188 190 171 182 134 98 120 143 138 126 105
281 285 289 293 298 306 309 303 294 289 285 282 278 278 280 279 276 269 262 251 240 224 175 229 225 219 261 274 259 236 225 230 234 227 219 217 217 218 210 199 194 193 194 196 196 185 187 199 209 222 217 213 233 221 204 204 199 208 218 209 207 224 198 173 184 190 195 180 178 209 214 117 122 132 145 159 164 178 184 175 183 143 110 125 153 139 131 121
276 279 283 288 294 300 303 299 292 290 287 282 282 289 292 284 272 263 260 246 233 201 175 222 223 221 252 259 237 230 218 221 227 217 213 211 207 208 196 186 188 184 184 183 184 183 185 199 204 213 223 211 211 217 207 203 200 198 214 214 205 217 195 165 178 188 199 193 181 208 207 112 121 124 128 154 166 176 185 173 173 164 143 137 131 130 134 129
272 273 276 282 289 296 299 296 290 288 287 286 294 307 307 286 275 260 253 220 189 184 211 224 209 222 244 231 229 231 215 211 207 201 203 200 199 200 189 184 184 178 179 180 184 187 184 194 202 205 216 212 206 215 215 205 201 195 203 213 204 207 194 172 181 185 198 201 185 203 197 122 123 114 106 126 148 165 170 155 151 161 159 142 129 133 132 117
268 269 273 278 284 291 296 294 290 288 290 295 312 334 343 325 302 240 223 189 175 182 215 199 191 204 318 211 208 193 187 192 185 192 194 190 192 193 189 186 182 180 183 181 185 189 185 190 203 209 209 206 206 211 219 214 205 198 199 215 205 197 196 180 182 181 191 199 188 199 189 131 124 113 99 100 112 129 129 137 146 139 151 142 133 133 124 110
264 267 270 274 281 288 292 292 287 285 292 301 308 314 275 217 214 208 199 197 198 207 232 195 189 214 285 158 190 184 172 181 187 196 191 184 185 187 189 185 182 188 193 189 185 186 189 198 204 209 208 205 206 210 221 228 224 206 199 214 210 198 205 186 177 178 185 198 194 196 182 134 119 107 100 99 100 102 105 110 116 120 126 126 127 123 107 99
260 264 265 269 277 283 289 291 284 283 297 302 275 257 235 216 231 222 191 204 215 223 242 227 197 224 244 180 176 200 203 200 198 199 189 182 183 185 187 185 185 192 200 197 185 182 194 209 208 208 210 208 207 210 221 233 245 225 201 207 207 203 205 172 159 170 181 202 201 191 173 139 123 104 99 96 92 83 82 86 86 98 96 95 109 114 100 94
255 258 262 267 273 280 287 285 278 284 300 296 251 241 242 250 302 323 237 231 229 224 235 239 226 234 241 238 229 217 216 204 194 194 185 180 185 188 182 185 194 190 195 198 184 183 200 216 211 205 210 212 206 209 220 225 231 229 208 208 207 202 197 157 151 172 186 206 193 171 157 139 129 110 103 95 89 81 77 78 74 80 83 80 87 97 95 92
249 253 259 262 269 279 282 279 279 287 288 262 241 240 245 266 286 289 280 277 257 227 224 229 230 232 234 234 225 211 219 207 192 188 181 180 188 193 184 185 199 193 193 199 190 191 201 211 210 203 207 210 202 205 214 215 217 225 216 210 204 201 199 165 160 180 193 210 181 161 156 140 136 130 119 101 96 90 82 80 76 75 77 76 76 80 83 83
245 250 256 258 267 277 280 284 283 282 270 243 243 242 242 259 270 284 274 269 274 241 222 217 220 225 225 225 214 206 215 214 204 186 179 186 189 193 195 191 198 200 199 200 197 203 209 204 203 202 203 206 202 202 207 207 208 221 224 220 211 204 194 157 162 179 192 206 187 178 179 164 165 158 140 112 103 98 90 85 80 78 79 77 75 71 70 73
242 246 251 255 266 276 284 289 278 263 249 239 247 245 241 246 246 277 275 260 261 240 220 208 210 219 219 217 206 202 211 218 219 194 179 190 192 190 198 195 201 207 200 200 200 208 218 199 194 199 198 201 206 201 201 203 203 213 224 231 225 205 184 166 172 177 187 199 187 190 198 186 184 172 152 135 113 103 94 87 81 80 81 75 71 69 67 70
239 242 248 254 264 276 283 288 273 241 227 232 240 234 223 218 216 245 250 258 254 215 197 192 196 204 205 205 194 191 209 216 216 201 180 191 196 192 195 193 204 215 200 199 203 212 217 195 189 200 196 197 206 200 197 201 212 211 206 225 232 209 190 176 174 178 193 199 185 196 213 186 180 177 162 151 124 115 107 92 87 82 79 74 69 71 71 71
235 238 246 254 260 266 261 268 277 223 220 218 205 187 182 179 209 243 222 246 244 181 171 175 176 182 190 190 180 184 207 190 196 205 185 189 197 199 206 195 196 217 199 189 207 210 210 198 189 196 193 193 202 199 194 199 218 217 180 206 231 215 195 179 177 193 204 198 186 196 217 209 179 175 163 155 139 131 126 105 94 88 82 79 74 73 74 73
231 236 247 254 257 255 244 256 266 228 216 179 169 184 181 176 229 234 219 236 185 144 157 167 164 174 182 179 179 195 207 167 178 200 186 188 197 199 214 204 194 211 198 189 208 190 198 205 187 186 191 195 204 202 196 197 217 226 177 192 225 221 201 186 189 209 204 203 198 195 212 222 188 171 161 160 157 145 137 123 99 92 89 85 80 76 76 74
232 241 251 252 255 253 241 246 245 226 224 192 180 188 192 206 229 219 230 229 159 138 153 157 158 176 179 175 183 200 209 183 176 181 176 188 199 201 217 209 198 208 201 200 213 187 193 207 188 185 198 202 201 203 200 196 215 229 189 182 208 221 208 196 202 213 208 217 214 193 205 225 198 163 168 178 171 152 136 127 108 99 95 87 84 79 75 75
243 249 252 247 246 244 237 240 239 231 227 217 194 185 203 224 225 202 207 216 172 154 153 152 162 179 177 173 185 198 206 203 177 169 174 186 197 204 220 214 203 208 204 202 217 208 185 187 187 194 209 207 197 202 201 194 212 228 197 179 201 211 211 211 216 219 215 218 212 201 207 221 211 161 181 200 166 149 137 130 127 113 102 92 87 84 80 80
249 248 244 234 226 226 224 232 236 221 210 209 197 196 211 224 229 207 187 201 189 152 151 163 172 178 179 177 183 191 200 205 174 167 175 182 191 200 209 212 203 203 204 198 215 215 181 175 196 204 209 207 196 200 199 193 212 223 198 189 202 198 204 214 218 223 227 219 205 204 208 212 220 188 170 140 127 139 137 130 134 121 109 102 93 90 85 81
242 238 232 222 215 211 206 202 178 181 192 199 196 202 209 207 226 226 188 185 201 166 166 177 175 176 181 182 182 183 193 199 174 171 178 179 186 195 198 204 194 193 201 194 206 213 193 189 200 199 204 205 198 197 193 191 208 211 193 201 203 188 196 206 206 211 228 229 205 204 212 208 203 92 122 114 116 128 123 121 129 120 113 107 100 94 85 80
234 231 227 217 213 212 211 212 167 169 181 193 202 210 218 211 209 217 209 186 176 212 189 173 172 177 180 183 182 181 191 196 173 172 182 182 185 192 200 208 198 196 202 193 196 205 198 193 194 197 199 200 205 200 186 188 199 197 194 202 202 190 192 200 203 204 219 231 213 211 216 191 114 84 106 113 117 117 112 113 116 111 108 102 96 91 84 79
232 228 222 213 214 216 215 218 202 186 189 204 212 209 212 224 206 204 214 187 128 208 213 176 172 178 183 188 181 177 192 196 177 176 182 183 188 189 198 207 201 199 203 196 197 199 199 194 193 201 190 188 208 211 188 190 194 193 202 209 209 205 197 197 206 206 207 213 212 219 221 173 135 133 116 116 120 118 114 113 111 107 105 99 91 86 83 80
232 227 219 212 214 218 214 211 205 201 206 211 216 207 203 218 206 196 205 156 124 184 207 209 188 179 183 192 181 179 195 195 178 184 188 184 191 189 192 202 199 198 200 195 196 199 204 199 188 198 192 184 205 212 190 192 195 193 207 216 214 212 202 198 215 230 225 214 202 205 204 80 115 133 125 123 124 123 120 121 121 114 109 103 94 87 83 80
244 228 216 212 214 214 207 202 199 198 207 215 222 217 210 220 227 223 297 352 128 173 184 219 207 184 180 190 180 181 197 197 180 187 193 189 194 191 190 198 197 199 201 195 194 193 201 202 181 185 194 190 196 209 199 195 193 191 205 215 215 215 214 207 209 243 270 233 198 161 109 102 122 130 131 129 125 126 128 128 129 125 119 112 102 93 85 78
241 222 210 207 211 206 196 195 191 191 209 223 230 232 227 232 237 26 312 275 181 188 206 201 205 194 182 188 181 178 190 194 183 189 194 190 195 193 191 196 197 201 205 199 198 194 198 205 180 178 191 189 189 208 215 204 199 199 202 209 211 216 221 220 211 207 220 227 202 164 148 146 155 151 141 139 136 137 135 132 132 130 126 118 108 102 91 82
222 214 202 195 196 189 183 186 185 190 211 226 239 248 253 265 261 193 234 245 184 228 230 193 206 208 189 186 182 178 185 187 184 191 192 188 194 192 192 194 193 199 205 200 195 195 200 203 177 181 191 184 182 204 218 206 211 221 207 200 210 217 212 209 217 215 208 213 206 179 168 172 187 168 154 156 151 145 143 140 137 132 129 123 112 107 98 88
211 206 189 176 176 174 172 177 186 199 217 223 231 240 245 268 263 248 244 259 281 252 243 212 228 211 192 193 185 179 185 186 185 192 191 189 188 187 192 195 188 194 201 200 193 192 201 204 177 184 190 181 177 198 206 194 210 227 218 202 214 228 214 206 214 219 213 212 209 195 185 187 199 168 161 164 158 150 146 141 137 131 128 124 113 109 101 90
211 203 159 159 169 169 165 172 189 204 218 226 229 237 244 247 240 233 258 299 307 296 305 345 290 230 196 196 191 184 187 184 189 197 192 187 182 182 192 194 184 189 198 198 191 190 202 204 183 181 187 187 185 195 202 194 196 213 217 204 207 215 211 213 216 216 220 217 207 202 191 155 34 156 162 161 159 153 143 135 134 130 125 118 110 108 101 90
215 220 137 159 171 165 163 172 196 210 217 229 234 239 250 260 247 215 214 257 314 323 303 299 285 267 225 207 197 187 182 180 193 200 187 185 188 187 190 190 184 188 195 197 189 188 200 200 188 184 188 195 193 190 200 204 196 195 207 209 205 203 205 212 214 215 222 223 215 206 179 96 6 332 160 153 149 142 136 134 131 125 120 113 107 104 98 91
230 233 137 160 167 164 170 183 203 213 217 224 233 241 244 260 272 245 209 182 218 264 262 263 261 266 256 238 219 193 184 182 191 196 188 182 187 192 188 186 186 187 192 198 188 184 204 206 191 194 195 194 191 192 202 209 203 196 205 217 208 199 208 214 210 212 216 226 229 212 149 84 3 356 99 119 124 128 132 132 126 122 117 111 107 102 95 90
222 136 126 156 168 172 189 214 206 209 222 224 233 249 250 245 248 246 228 213 285 270 262 260 255 253 231 234 241 208 189 181 186 194 192 178 181 194 188 183 185 187 189 200 186 172 195 223 196 197 201 193 188 192 197 207 212 203 204 219 218 204 209 219 222 216 212 223 230 212 142 116 45 34 73 102 117 124 127 127 124 121 117 111 108 103 96 91
183 134 120 149 167 182 209 232 211 208 213 219 235 248 249 245 241 240 235 218 232 266 265 262 252 248 234 236 254 229 198 180 185 194 194 179 178 193 189 182 187 188 184 195 185 162 181 216 195 189 191 186 190 196 192 198 216 214 201 209 217 212 209 219 232 223 219 230 226 207 139 131 129 100 95 109 119 122 123 125 124 120 118 114 111 106 100 95
175 130 125 152 173 203 232 258 277 252 216 217 244 253 251 248 235 244 266 254 242 256 263 270 263 265 274 260 257 243 210 187 180 190 195 178 166 184 187 183 190 193 184 189 184 166 187 211 195 200 200 187 188 197 194 193 203 215 210 205 212 216 209 207 220 219 217 232 228 204 131 126 134 135 132 126 124 122 123 124 122 119 119 117 114 111 105 100
224 130 137 162 186 218 240 253 262 265 243 225 243 252 247 238 210 217 264 261 252 253 258 272 276 278 279 257 248 245 212 188 172 187 189 163 155 183 184 183 193 190 175 177 178 171 190 208 195 221 227 207 203 199 194 194 196 205 213 208 211 222 216 205 209 214 210 226 233 147 129 137 142 144 142 136 130 126 126 126 123 122 120 117 118 115 109 105
277 158 155 169 192 211 228 242 242 245 243 225 232 256 237 230 219 210 232 246 252 256 261 266 260 261 266 244 229 231 204 179 168 183 172 143 162 188 183 188 192 164 144 165 183 184 188 186 176 178 181 266 259 207 189 194 199 201 207 208 211 222 227 219 207 199 222 242 228 124 132 140 147 150 146 140 135 130 130 130 127 125 122 120 120 116 111 106
267 169 165 165 184 211 210 227 239 240 242 235 247 313 256 244 255 254 241 253 254 248 255 257 244 243 249 238 221 222 207 179 176 187 171 149 172 183 182 190 184 146 150 180 188 190 193 178 169 157 157 172 260 212 194 200 205 205 203 201 205 211 215 224 229 255 341 38 140 140 137 133 140 149 145 139 137 131 130 130 127 125 123 122 121 117 113 107
254 207 172 159 231 264 218 207 231 215 247 287 275 295 281 264 262 262 263 268 256 242 241 249 249 237 232 237 230 219 223 195 180 179 166 158 181 179 178 185 177 165 182 189 178 183 196 176 168 163 151 152 160 176 189 188 178 184 189 188 202 213 206 210 222 197 88 104 124 131 124 119 132 140 134 131 129 124 125 126 125 125 124 124 122 117 114 106
312 325 53 214 275 275 222 72 94 174 49 353 309 274 270 264 267 272 269 262 257 248 232 235 249 242 228 234 225 206 229 232 189 156 127 170 195 187 181 176 172 179 189 186 172 173 176 160 166 161 135 135 151 150 152 143 114 103 123 152 176 192 177 155 133 112 104 106 116 121 117 113 124 127 125 125 124 122 125 125 124 125 125 124 121 116 113 106
339 337 1 332 286 282 91 84 79 76 354 312 246 272 259 254 267 275 274 265 254 247 233 227 240 255 251 234 213 192 227 233 177 120 127 198 201 187 191 177 168 180 189 181 162 155 169 173 173 170 154 147 151 141 134 129 114 100 94 97 123 143 130 114 108 114 124 127 127 126 125 129 134 129 126 126 126 126 126 126 125 125 124 124 121 116 111 104
347 322 334 317 289 57 96 106 108 127 252 207 213 230 237 252 261 255 256 264 244 239 245 247 255 269 250 216 187 100 41 163 118 93 142 213 210 178 193 198 179 179 184 170 153 159 177 179 178 179 165 146 146 142 139 137 130 116 97 72 58 110 109 98 81 82 116 137 143 142 139 141 140 135 130 129 130 128 127 127 126 125 125 123 118 114 109 104
Height
1508 1508 1507 1506 1505 1505 1504 1503 1503 1502 1501 1500 1500 1499 1499 1498 1498 1498 1498 1498 1498 1499 1499 1499 1499 1499 1499 1499 1499 1499 1499 1498 1498 1499 1498 1498 1499 1500 1500 1501 1501 1502 1503 1504 1506 1507 1507 1508 1509 1509 1509 1508 1507 1504 1504 1505 1504 1503 1501 1499 1496 1488 1481 1475 1476 1477 1474 1479 1481 1482 1482 1479 1479 1482 1482 1485 1484 1484 1487 1489 1492 1496 1497 1498 1501 1505 1506 1506
1507 1507 1506 1505 1504 1504 1503 1502 1502 1501 1500 1499 1499 1498 1498 1497 1497 1496 1496 1496 1497 1497 1498 1498 1498 1498 1499 1499 1498 1498 1498 1497 1497 1496 1495 1495 1497 1497 1498 1499 1501 1501 1502 1504 1506 1507 1507 1507 1507 1508 1507 1505 1503 1502 1502 1503 1502 1500 1497 1496 1491 1481 1475 1472 1474 1476 1478 1483 1483 1483 1484 1481 1479 1480 1483 1484 1483 1485 1487 1488 1492 1496 1499 1501 1502 1507 1509 1508
1506 1506 1505 1504 1503 1503 1502 1501 1501 1500 1499 1499 1498 1497 1497 1496 1496 1495 1495 1495 1496 1496 1496 1497 1497 1498 1498 1498 1498 1498 1497 1496 1495 1493 1491 1492 1495 1495 1496 1498 1499 1500 1501 1503 1506 1506 1506 1506 1506 1507 1505 1502 1500 1500 1500 1500 1500 1497 1495 1494 1485 1476 1475 1477 1480 1482 1484 1486 1484 1485 1485 1483 1482 1482 1482 1482 1481 1484 1484 1486 1490 1494 1499 1502 1504 1507 1509 1510
1505 1505 1504 1503 1502 1502 1501 1500 1500 1499 1498 1498 1497 1496 1496 1495 1495 1494 1494 1494 1494 1495 1495 1496 1496 1497 1497 1497 1498 1497 1497 1496 1492 1489 1488 1490 1493 1493 1494 1496 1497 1499 1500 1503 1505 1505 1505 1505 1505 1505 1503 1499 1497 1499 1498 1497 1498 1495 1493 1490 1480 1477 1480 1482 1484 1486 1488 1489 1487 1486 1485 1484 1485 1486 1484 1480 1483 1485 1482 1484 1487 1491 1498 1503 1506 1508 1510 1510
1504 1504 1503 1502 1502 1501 1500 1500 1499 1498 1497 1496 1496 1495 1494 1494 1494 1493 1493 1493 1493 1493 1494 1495 1495 1496 1496 1497 1497 1497 1499 1495 1488 1486 1488 1489 1491 1491 1492 1494 1495 1497 1499 1502 1504 1504 1504 1504 1504 1504 1501 1496 1494 1497 1496 1495 1495 1493 1491 1485 1480 1482 1484 1482 1485 1488 1490 1490 1488 1487 1485 1485 1485 1486 1485 1481 1483 1484 1480 1484 1486 1489 1498 1505 1508 1509 1510 1510
1503 1503 1502 1501 1501 1500 1499 1498 1497 1496 1496 1495 1494 1494 1493 1493 1493 1492 1492 1491 1492 1492 1493 1493 1494 1495 1495 1496 1496 1497 1497 1491 1486 1488 1488 1488 1489 1490 1491 1492 1494 1496 1498 1500 1502 1503 1503 1503 1502 1501 1499 1495 1492 1494 1493 1493 1494 1492 1489 1485 1485 1486 1484 1483 1487 1490 1491 1490 1488 1488 1487 1488 1485 1484 1485 1482 1483 1485 1483 1485 1487 1491 1500 1505 1508 1510 1510 1510
1502 1501 1501 1500 1499 1499 1498 1497 1496 1495 1494 1494 1493 1493 1492 1492 1492 1491 1491 1490 1490 1491 1492 1492 1494 1494 1494 1496 1496 1497 1495 1488 1487 1488 1487 1488 1488 1489 1490 1491 1492 1494 1496 1499 1500 1501 1501 1501 1500 1498 1497 1494 1491 1491 1491 1490 1493 1492 1488 1484 1486 1487 1485 1486 1488 1489 1491 1490 1489 1489 1489 1489 1486 1484 1486 1485 1486 1489 1488 1489 1491 1495 1502 1505 1509 1511 1510 1510
1501 1500 1499 1499 1498 1497 1497 1496 1495 1494 1493 1492 1492 1492 1491 1491 1491 1490 1490 1489 1489 1490 1491 1491 1492 1493 1494 1495 1495 1495 1492 1488 1488 1487 1487 1488 1488 1488 1489 1490 1491 1492 1494 1496 1498 1499 1499 1498 1497 1496 1494 1491 1489 1489 1488 1489 1491 1491 1488 1484 1485 1487 1487 1488 1489 1489 1490 1489 1490 1490 1489 1487 1486 1485 1485 1486 1488 1491 1491 1492 1493 1497 1502 1506 1509 1511 1510 1510
1500 1499 1498 1497 1497 1496 1495 1494 1493 1493 1492 1491 1491 1491 1490 1490 1490 1489 1488 1488 1488 1488 1489 1490 1491 1492 1493 1493 1495 1493 1488 1486 1487 1486 1487 1488 1487 1488 1488 1489 1490 1491 1493 1495 1496 1497 1497 1496 1495 1494 1491 1489 1488 1486 1487 1489 1489 1487 1487 1485 1485 1486 1487 1488 1489 1489 1489 1488 1488 1489 1488 1487 1489 1488 1485 1487 1490 1492 1493 1493 1494 1496 1501 1506 1510 1511 1511 1511
1498 1497 1497 1496 1495 1495 1494 1493 1492 1491 1491 1490 1490 1490 1489 1489 1488 1488 1487 1487 1487 1487 1488 1489 1490 1491 1492 1493 1495 1491 1484 1484 1486 1485 1486 1487 1487 1487 1488 1490 1489 1490 1492 1493 1494 1495 1494 1494 1494 1494 1492 1489 1487 1485 1486 1488 1486 1484 1485 1485 1485 1485 1486 1487 1487 1487 1487 1487 1487 1487 1486 1487 1490 1489 1486 1487 1490 1493 1493 1493 1495 1496 1500 1506 1510 1512 1512 1513
1497 1496 1495 1494 1494 1493 1492 1491 1490 1490 1489 1489 1489 1488 1488 1488 1487 1487 1486 1486 1486 1486 1487 1488 1489 1490 1491 1493 1492 1486 1482 1484 1485 1485 1485 1485 1487 1487 1488 1489 1489 1490 1491 1492 1492 1493 1493 1493 1493 1494 1492 1490 1488 1486 1485 1486 1485 1484 1485 1484 1484 1484 1485 1486 1485 1485 1486 1486 1487 1485 1484 1486 1489 1488 1485 1486 1491 1492 1492 1493 1494 1495 1501 1508 1511 1514 1515 1515
1495 1494 1494 1493 1492 1491 1490 1489 1489 1488 1487 1487 1487 1487 1487 1486 1486 1485 1485 1485 1485 1485 1485 1486 1488 1489 1490 1491 1488 1483 1482 1484 1484 1484 1484 1485 1486 1486 1487 1488 1488 1489 1490 1490 1491 1492 1493 1493 1493 1492 1490 1490 1488 1486 1485 1485 1485 1485 1486 1486 1485 1485 1485 1485 1483 1484 1485 1483 1484 1485 1487 1490 1488 1487 1487 1488 1492 1493 1492 1493 1493 1495 1502 1509 1512 1516 1518 1517
1493 1493 1492 1491 1491 1490 1489 1488 1487 1487 1486 1486 1485 1485 1485 1485 1485 1484 1484 1484 1484 1484 1484 1485 1486 1488 1490 1487 1482 1481 1481 1482 1483 1483 1483 1484 1485 1485 1485 1486 1487 1488 1489 1489 1490 1491 1492 1492 1493 1491 1490 1490 1486 1485 1484 1484 1486 1485 1485 1485 1483 1486 1486 1482 1482 1483 1483 1481 1482 1485 1491 1492 1486 1484 1489 1491 1492 1493 1492 1492 1493 1495 1501 1508 1513 1517 1519 1519
1491 1491 1490 1490 1489 1488 1487 1486 1486 1486 1485 1484 1484 1484 1483 1483 1483 1483 1483 1483 1483 1483 1483 1485 1485 1487 1488 1483 1479 1479 1480 1480 1481 1481 1482 1483 1484 1485 1485 1485 1486 1487 1488 1488 1489 1490 1491 1492 1494 1492 1491 1489 1483 1484 1485 1483 1485 1484 1485 1484 1480 1483 1482 1478 1478 1480 1481 1481 1481 1485 1488 1484 1480 1483 1489 1491 1492 1493 1492 1491 1493 1495 1500 1508 1513 1518 1520 1521
1490 1489 1489 1488 1487 1487 1486 1485 1485 1484 1484 1483 1482 1482 1481 1482 1481 1481 1482 1481 1482 1482 1483 1484 1485 1487 1487 1480 1476 1476 1476 1477 1477 1477 1480 1482 1483 1484 1484 1485 1485 1486 1487 1488 1488 1489 1490 1492 1493 1491 1489 1488 1485 1486 1485 1483 1483 1482 1485 1486 1479 1477 1475 1473 1475 1476 1479 1480 1481 1485 1484 1479 1480 1485 1488 1490 1493 1493 1492 1492 1494 1497 1503 1509 1514 1517 1520 1520
1488 1487 1487 1486 1486 1485 1484 1484 1483 1483 1483 1482 1481 1480 1480 1480 1480 1480 1480 1480 1481 1482 1483 1485 1485 1487 1485 1477 1473 1472 1473 1473 1473 1475 1478 1480 1481 1482 1483 1484 1485 1486 1487 1487 1488 1488 1491 1491 1492 1490 1487 1487 1487 1485 1483 1484 1483 1480 1481 1481 1478 1474 1469 1471 1474 1473 1475 1477 1481 1482 1480 1483 1486 1487 1488 1490 1492 1493 1493 1494 1495 1500 1507 1512 1515 1517 1518 1521
1486 1486 1485 1485 1484 1483 1483 1482 1482 1481 1481 1480 1479 1479 1479 1478 1478 1479 1479 1479 1481 1481 1483 1485 1486 1488 1481 1472 1470 1470 1470 1470 1472 1474 1476 1477 1479 1480 1482 1483 1484 1485 1486 1487 1488 1488 1489 1490 1489 1488 1485 1484 1483 1481 1483 1487 1484 1479 1477 1475 1474 1470 1465 1470 1475 1473 1471 1474 1479 1479 1478 1486 1489 1487 1489 1490 1491 1492 1492 1493 1495 1500 1506 1511 1515 1517 1518 1520
1484 1484 1483 1483 1482 1482 1481 1481 1480 1480 1479 1479 1479 1478 1477 1477 1477 1478 1478 1479 1481 1484 1485 1484 1487 1485 1473 1465 1466 1466 1466 1468 1470 1472 1473 1475 1478 1479 1480 1481 1482 1484 1485 1485 1486 1486 1487 1487 1485 1484 1482 1481 1479 1478 1481 1481 1477 1476 1476 1473 1470 1467 1464 1469 1473 1471 1470 1472 1477 1478 1479 1486 1489 1489 1491 1491 1492 1493 1493 1495 1497 1499 1503 1509 1513 1515 1516 1519
1482 1482 1482 1481 1481 1480 1479 1479 1479 1478 1478 1478 1478 1478 1477 1477 1478 1478 1479 1479 1480 1481 1479 1477 1479 1473 1461 1458 1462 1463 1464 1466 1468 1470 1471 1473 1476 1478 1479 1480 1481 1482 1482 1482 1482 1482 1483 1483 1483 1482 1479 1477 1476 1474 1474 1469 1466 1468 1471 1469 1466 1466 1463 1464 1467 1467 1469 1473 1476 1476 1477 1485 1490 1491 1493 1494 1495 1496 1497 1499 1500 1502 1503 1507 1512 1515 1516 1519
1479 1479 1480 1479 1479 1479 1478 1477 1477 1476 1476 1477 1478 1479 1478 1477 1476 1475 1477 1477 1475 1473 1468 1467 1468 1464 1457 1458 1461 1462 1463 1465 1466 1468 1469 1471 1474 1476 1477 1478 1479 1479 1477 1476 1477 1478 1480 1480 1479 1477 1474 1473 1472 1471 1468 1462 1460 1463 1466 1466 1464 1465 1463 1460 1462 1464 1466 1473 1475 1472 1474 1485 1493 1493 1495 1498 1499 1499 1501 1502 1503 1504 1506 1509 1514 1518 1519 1520
1477 1478 1478 1477 1477 1477 1476 1476 1475 1475 1475 1476 1478 1478 1475 1473 1471 1469 1471 1472 1470 1469 1465 1464 1465 1462 1458 1459 1461 1462 1462 1463 1465 1466 1467 1469 1472 1472 1473 1474 1474 1475 1473 1471 1472 1475 1477 1476 1473 1471 1469 1469 1469 1469 1467 1464 1463 1462 1464 1466 1464 1464 1461 1458 1461 1463 1466 1472 1472 1468 1474 1488 1494 1495 1499 1502 1503 1504 1505 1507 1507 1507 1510 1513 1518 1520 1520 1521
1475 1476 1476 1476 1475 1475 1475 1474 1474 1474 1474 1474 1476 1476 1473 1471 1471 1470 1471 1468 1465 1465 1464 1463 1464 1461 1459 1460 1461 1461 1461 1460 1461 1463 1464 1467 1469 1468 1467 1469 1469 1469 1468 1467 1469 1473 1475 1472 1467 1466 1466 1466 1467 1468 1467 1467 1468 1465 1463 1464 1464 1462 1460 1461 1465 1466 1467 1470 1470 1469 1478 1491 1494 1497 1504 1505 1505 1508 1510 1511 1512 1513 1515 1518 1521 1521 1522 1522
1473 1473 1474 1474 1473 1473 1473 1472 1472 1472 1472 1473 1474 1473 1473 1472 1472 1472 1472 1467 1461 1459 1460 1460 1460 1459 1458 1458 1459 1461 1459 1456 1456 1459 1461 1463 1464 1464 1464 1465 1465 1464 1464 1463 1464 1470 1472 1468 1463 1463 1464 1465 1467 1469 1468 1469 1470 1467 1463 1463 1463 1459 1459 1465 1470 1470 1469 1468 1470 1475 1485 1494 1496 1500 1506 1506 1507 1510 1515 1517 1517 1519 1521 1522 1523 1523 1523 1524
1471 1471 1472 1472 1472 1472 1471 1471 1471 1470 1470 1472 1472 1472 1472 1473 1472 1472 1471 1466 1458 1454 1453 1454 1456 1455 1454 1455 1457 1458 1458 1455 1454 1454 1458 1460 1460 1462 1461 1461 1463 1461 1459 1458 1460 1464 1464 1460 1459 1461 1462 1464 1467 1468 1468 1471 1472 1468 1463 1460 1460 1456 1455 1463 1471 1472 1472 1470 1471 1479 1492 1498 1497 1502 1506 1506 1508 1512 1517 1520 1521 1522 1523 1524 1524 1524 1524 1525
1468 1469 1470 1470 1471 1470 1470 1470 1468 1468 1470 1470 1470 1470 1471 1471 1471 1472 1471 1465 1455 1448 1447 1449 1451 1450 1451 1453 1454 1455 1456 1455 1452 1451 1455 1457 1458 1459 1458 1459 1460 1457 1456 1456 1458 1460 1457 1454 1455 1459 1461 1463 1465 1466 1466 1470 1471 1469 1464 1459 1456 1454 1455 1462 1470 1473 1478 1480 1474 1477 1496 1502 1494 1496 1504 1505 1508 1513 1519 1522 1523 1525 1525 1525 1525 1525 1526 1526
1466 1467 1468 1468 1469 1468 1470 1468 1467 1468 1468 1468 1469 1469 1470 1470 1471 1472 1470 1462 1447 1436 1438 1442 1443 1443 1445 1448 1450 1454 1456 1452 1450 1451 1452 1455 1457 1456 1456 1456 1455 1454 1452 1453 1456 1457 1453 1450 1453 1457 1459 1462 1463 1464 1465 1467 1469 1468 1464 1459 1455 1453 1455 1461 1467 1474 1482 1482 1473 1473 1488 1496 1492 1493 1498 1503 1510 1515 1519 1523 1524 1526 1526 1526 1527 1528 1528 1528
1464 1465 1466 1467 1467 1468 1469 1467 1466 1467 1466 1467 1468 1468 1470 1469 1470 1471 1468 1461 1442 1425 1427 1436 1437 1435 1437 1441 1447 1451 1449 1445 1448 1450 1449 1453 1455 1454 1454 1451 1453 1452 1447 1452 1459 1455 1449 1450 1453 1455 1458 1461 1463 1463 1463 1464 1468 1465 1458 1458 1458 1455 1458 1462 1468 1474 1474 1472 1472 1472 1476 1486 1496 1496 1492 1499 1511 1516 1520 1523 1525 1527 1527 1528 1529 1529 1530 1530
1462 1463 1464 1465 1465 1466 1467 1466 1466 1466 1466 1466 1466 1468 1469 1468 1470 1470 1466 1456 1434 1416 1421 1431 1433 1433 1434 1439 1443 1443 1439 1438 1443 1447 1448 1452 1452 1452 1451 1447 1449 1449 1443 1452 1460 1453 1449 1451 1452 1455 1459 1461 1460 1460 1459 1463 1466 1459 1453 1459 1461 1458 1460 1462 1468 1471 1467 1470 1479 1475 1472 1484 1496 1496 1493 1499 1509 1516 1520 1524 1526 1527 1529 1529 1530 1530 1530 1531
1461 1461 1462 1463 1463 1464 1465 1465 1465 1465 1466 1466 1466 1469 1468 1469 1471 1466 1461 1445 1419 1411 1420 1425 1430 1431 1431 1435 1439 1439 1436 1434 1437 1441 1446 1451 1450 1450 1449 1444 1446 1447 1444 1449 1453 1449 1449 1450 1450 1455 1459 1457 1456 1456 1457 1461 1463 1455 1452 1459 1462 1462 1461 1463 1468 1467 1466 1476 1482 1476 1474 1483 1488 1491 1497 1499 1505 1515 1520 1524 1527 1528 1529 1530 1530 1531 1531 1531
1459 1460 1461 1461 1462 1463 1463 1463 1463 1464 1465 1466 1467 1468 1467 1470 1467 1460 1458 1438 1409 1409 1419 1420 1425 1426 1426 1431 1434 1436 1434 1430 1431 1438 1444 1448 1449 1450 1448 1444 1445 1446 1444 1446 1449 1446 1445 1449 1452 1454 1455 1453 1453 1455 1455 1459 1460 1454 1453 1460 1465 1466 1463 1465 1465 1462 1472 1483 1478 1472 1473 1479 1488 1494 1498 1495 1498 1511 1520 1524 1528 1528 1529 1531 1531 1532 1532 1532
1457 1458 1459 1460 1460 1461 1462 1462 1462 1462 1465 1466 1466 1468 1468 1468 1462 1453 1445 1424 1406 1410 1416 1418 1420 1419 1421 1426 1428 1431 1431 1427 1428 1434 1439 1442 1445 1447 1446 1444 1443 1445 1445 1447 1451 1446 1444 1452 1454 1452 1453 1452 1452 1455 1454 1457 1457 1454 1458 1464 1470 1472 1470 1474 1471 1468 1482 1482 1467 1466 1468 1472 1487 1497 1498 1497 1497 1506 1517 1524 1527 1528 1530 1531 1532 1533 1533 1533
1455 1456 1457 1458 1459 1460 1460 1461 1461 1462 1464 1465 1466 1467 1466 1464 1459 1448 1428 1412 1414 1416 1410 1412 1415 1414 1418 1421 1423 1426 1427 1424 1423 1428 1433 1436 1440 1442 1441 1438 1436 1444 1450 1451 1452 1448 1445 1449 1450 1451 1452 1450 1453 1455 1455 1457 1456 1455 1461 1467 1474 1480 1483 1489 1484 1481 1486 1473 1457 1460 1462 1471 1488 1494 1497 1501 1503 1508 1517 1524 1528 1529 1530 1531 1532 1533 1533 1533
1453 1454 1455 1456 1457 1458 1459 1460 1460 1461 1462 1463 1465 1465 1464 1460 1450 1437 1420 1411 1418 1417 1406 1406 1410 1411 1416 1418 1419 1422 1424 1421 1419 1424 1429 1431 1436 1439 1438 1434 1430 1438 1446 1447 1450 1451 1447 1446 1447 1450 1450 1448 1450 1451 1453 1459 1457 1457 1462 1466 1472 1479 1491 1499 1489 1485 1485 1469 1457 1455 1458 1479 1501 1506 1505 1506 1509 1514 1519 1525 1528 1529 1530 1531 1532 1533 1534 1533
1452 1453 1453 1454 1455 1456 1458 1460 1460 1461 1462 1463 1463 1462 1465 1457 1436 1423 1417 1411 1414 1416 1408 1405 1407 1409 1413 1414 1414 1417 1420 1418 1415 1422 1427 1428 1434 1436 1436 1433 1428 1432 1437 1441 1446 1447 1449 1451 1448 1447 1446 1446 1447 1443 1448 1455 1455 1457 1457 1458 1463 1466 1479 1492 1485 1482 1481 1472 1464 1459 1465 1486 1504 1512 1512 1511 1514 1517 1520 1525 1529 1530 1531 1531 1533 1533 1535 1535
1451 1451 1452 1453 1454 1455 1456 1459 1459 1461 1462 1462 1461 1459 1457 1446 1424 1415 1416 1412 1414 1416 1412 1408 1407 1409 1411 1410 1409 1413 1416 1414 1414 1420 1423 1424 1428 1430 1430 1429 1426 1427 1432 1440 1442 1438 1444 1447 1441 1442 1443 1443 1447 1442 1443 1451 1456 1458 1454 1455 1459 1453 1458 1473 1473 1470 1472 1472 1471 1471 1485 1499 1505 1511 1511 1511 1517 1518 1520 1526 1528 1531 1531 1531 1534 1534 1535 1536
1450 1450 1451 1451 1452 1453 1455 1457 1458 1460 1461 1460 1460 1454 1443 1432 1422 1419 1421 1418 1417 1418 1416 1415 1410 1407 1410 1408 1406 1410 1412 1410 1413 1418 1420 1421 1423 1424 1425 1424 1423 1423 1425 1433 1437 1435 1442 1442 1433 1440 1444 1442 1447 1445 1441 1449 1455 1457 1456 1456 1452 1444 1448 1463 1470 1469 1470 1477 1473 1476 1501 1514 1512 1516 1513 1512 1520 1520 1521 1526 1527 1530 1533 1532 1535 1535 1535 1536
1448 1449 1449 1450 1451 1453 1454 1456 1457 1459 1460 1458 1456 1447 1434 1426 1424 1427 1429 1424 1420 1419 1419 1421 1414 1406 1408 1406 1402 1407 1409 1408 1413 1416 1416 1418 1419 1418 1420 1421 1421 1422 1420 1425 1430 1430 1438 1439 1430 1436 1445 1442 1446 1449 1442 1443 1447 1452 1457 1453 1447 1447 1449 1455 1470 1475 1477 1482 1473 1474 1503 1516 1510 1517 1518 1513 1520 1521 1522 1526 1528 1531 1533 1534 1535 1536 1536 1536
1447 1448 1449 1450 1451 1452 1454 1456 1457 1458 1458 1455 1451 1444 1434 1431 1428 1428 1429 1424 1422 1421 1419 1421 1417 1406 1405 1404 1400 1401 1405 1408 1412 1411 1412 1416 1415 1413 1415 1417 1418 1420 1419 1421 1428 1427 1431 1440 1436 1435 1442 1443 1444 1450 1448 1443 1442 1446 1449 1446 1448 1455 1454 1455 1469 1477 1479 1484 1479 1478 1499 1508 1500 1507 1515 1514 1516 1519 1522 1525 1528 1531 1533 1534 1535 1536 1536 1536
1446 1446 1447 1448 1450 1452 1454 1456 1457 1458 1456 1450 1445 1440 1435 1436 1433 1427 1425 1422 1422 1422 1418 1420 1418 1407 1402 1402 1398 1397 1401 1406 1409 1408 1409 1413 1413 1409 1410 1413 1415 1418 1419 1419 1426 1427 1427 1439 1443 1436 1436 1440 1443 1448 1451 1449 1446 1444 1441 1440 1444 1447 1449 1454 1461 1466 1471 1478 1481 1483 1491 1496 1494 1497 1505 1510 1511 1515 1520 1524 1527 1530 1532 1533 1534 1536 1536 1536
1444 1444 1445 1447 1450 1451 1452 1455 1456 1455 1452 1445 1439 1435 1433 1434 1430 1424 1423 1422 1421 1422 1421 1423 1424 1414 1402 1398 1396 1394 1396 1403 1407 1406 1405 1408 1411 1409 1408 1409 1412 1417 1419 1418 1424 1428 1427 1435 1445 1439 1434 1439 1442 1441 1442 1444 1444 1445 1444 1443 1444 1444 1446 1452 1453 1452 1458 1467 1474 1482 1489 1498 1502 1498 1499 1505 1508 1511 1517 1523 1527 1529 1532 1533 1534 1536 1536 1536
1444 1443 1445 1447 1449 1450 1452 1454 1453 1449 1446 1440 1435 1433 1433 1430 1424 1421 1423 1424 1423 1423 1424 1426 1428 1421 1408 1400 1396 1391 1394 1403 1407 1404 1403 1406 1410 1410 1407 1407 1411 1415 1417 1417 1422 1428 1429 1433 1442 1441 1436 1438 1436 1432 1433 1435 1435 1442 1445 1443 1443 1444 1446 1457 1462 1452 1447 1454 1461 1470 1490 1509 1511 1504 1502 1503 1506 1512 1517 1523 1526 1529 1531 1533 1535 1536 1536 1537
1444 1443 1444 1446 1447 1449 1451 1450 1447 1444 1440 1436 1433 1432 1431 1428 1424 1421 1421 1423 1423 1424 1424 1424 1424 1421 1414 1407 1399 1391 1392 1400 1405 1403 1403 1404 1407 1408 1405 1406 1410 1413 1415 1417 1420 1425 1428 1431 1438 1439 1432 1431 1431 1428 1430 1432 1431 1436 1442 1438 1436 1439 1444 1454 1463 1456 1448 1451 1449 1453 1488 1518 1516 1507 1507 1507 1509 1515 1520 1523 1526 1530 1532 1533 1535 1536 1537 1538
1444 1443 1444 1446 1446 1449 1450 1445 1440 1437 1434 1431 1430 1429 1427 1425 1423 1422 1421 1423 1423 1423 1424 1422 1419 1417 1412 1407 1402 1393 1389 1396 1402 1402 1402 1404 1407 1408 1404 1405 1409 1411 1414 1417 1419 1425 1431 1432 1437 1438 1429 1424 1427 1427 1428 1431 1433 1436 1439 1435 1432 1436 1440 1442 1446 1447 1449 1455 1451 1456 1491 1521 1520 1514 1513 1512 1515 1520 1523 1526 1528 1530 1533 1534 1536 1537 1538 1539
1443 1443 1444 1446 1447 1449 1449 1443 1436 1431 1429 1429 1429 1427 1425 1423 1422 1422 1422 1423 1424 1424 1424 1420 1415 1413 1410 1407 1405 1397 1391 1397 1404 1403 1402 1404 1407 1407 1404 1405 1409 1409 1413 1417 1417 1425 1434 1433 1435 1444 1443 1440 1444 1442 1438 1437 1437 1435 1434 1434 1433 1433 1436 1440 1440 1443 1451 1456 1451 1461 1494 1517 1519 1520 1520 1518 1520 1523 1525 1528 1529 1531 1533 1535 1537 1538 1539 1541
1441 1442 1444 1447 1448 1448 1446 1442 1439 1433 1427 1428 1430 1427 1425 1423 1422 1423 1423 1422 1424 1425 1423 1419 1414 1412 1410 1408 1407 1401 1394 1395 1402 1404 1403 1404 1407 1408 1406 1407 1410 1410 1413 1418 1419 1425 1433 1430 1433 1444 1447 1448 1454 1451 1443 1440 1439 1436 1432 1432 1434 1432 1433 1441 1445 1449 1459 1458 1448 1459 1494 1517 1520 1521 1523 1522 1523 1524 1527 1530 1531 1532 1534 1535 1537 1539 1540 1541
1438 1438 1443 1446 1448 1447 1444 1441 1442 1438 1431 1431 1432 1430 1427 1424 1422 1425 1427 1425 1424 1423 1421 1419 1416 1414 1412 1410 1409 1406 1396 1392 1399 1402 1402 1406 1409 1409 1409 1410 1412 1412 1414 1419 1421 1425 1430 1430 1433 1440 1441 1440 1442 1438 1433 1434 1438 1440 1436 1433 1434 1432 1431 1436 1444 1452 1459 1457 1455 1467 1492 1513 1520 1521 1523 1524 1524 1526 1528 1530 1532 1533 1535 1536 1538 1540 1541 1542
1438 1436 1437 1441 1443 1443 1442 1439 1438 1436 1433 1433 1433 1431 1428 1425 1424 1427 1428 1426 1424 1423 1422 1420 1417 1416 1414 1411 1411 1410 1400 1395 1401 1403 1404 1411 1413 1410 1411 1412 1412 1414 1416 1419 1421 1423 1429 1436 1439 1442 1443 1440 1435 1430 1428 1432 1435 1438 1438 1436 1437 1436 1435 1438 1446 1452 1454 1458 1473 1486 1493 1504 1516 1520 1522 1524 1525 1527 1529 1531 1533 1534 1535 1538 1539 1540 1542 1543
1440 1435 1434 1436 1438 1437 1436 1436 1434 1433 1434 1434 1433 1432 1430 1428 1427 1427 1427 1426 1424 1423 1423 1420 1417 1416 1413 1410 1412 1411 1405 1402 1404 1404 1406 1414 1416 1412 1413 1413 1413 1417 1419 1419 1421 1423 1430 1440 1442 1441 1442 1440 1436 1433 1430 1431 1432 1433 1436 1439 1441 1442 1444 1448 1450 1451 1455 1465 1482 1493 1494 1501 1512 1518 1521 1524 1526 1528 1531 1532 1534 1535 1536 1538 1539 1541 1542 1542
1440 1436 1435 1437 1438 1435 1432 1433 1433 1434 1436 1436 1434 1434 1434 1432 1430 1429 1428 1428 1426 1423 1423 1422 1418 1414 1411 1410 1410 1411 1412 1411 1409 1407 1409 1415 1416 1413 1413 1412 1413 1418 1419 1420 1423 1424 1430 1439 1440 1438 1441 1440 1438 1438 1437 1437 1438 1437 1438 1442 1446 1446 1449 1453 1455 1455 1461 1472 1480 1488 1496 1505 1513 1517 1521 1526 1527 1529 1532 1534 1535 1536 1537 1538 1540 1541 1542 1542
1441 1440 1438 1439 1439 1437 1435 1435 1435 1436 1438 1439 1438 1436 1435 1434 1432 1431 1429 1428 1429 1425 1422 1422 1419 1413 1411 1410 1408 1412 1418 1416 1409 1410 1418 1423 1420 1415 1413 1413 1415 1418 1420 1421 1424 1428 1435 1442 1439 1438 1446 1447 1441 1442 1446 1448 1447 1447 1448 1449 1451 1453 1455 1459 1462 1464 1469 1478 1486 1493 1504 1514 1518 1520 1523 1527 1529 1531 1533 1535 1536 1537 1538 1539 1540 1541 1542 1543
1443 1443 1442 1442 1440 1438 1438 1438 1439 1440 1441 1442 1441 1437 1435 1434 1433 1432 1430 1427 1427 1426 1422 1420 1419 1415 1412 1410 1409 1413 1417 1414 1409 1412 1421 1425 1421 1415 1414 1414 1415 1418 1421 1422 1426 1433 1440 1445 1441 1440 1451 1455 1445 1444 1450 1452 1453 1459 1464 1464 1462 1462 1466 1468 1468 1466 1471 1485 1495 1499 1508 1517 1521 1522 1525 1528 1530 1532 1534 1536 1537 1538 1539 1540 1541 1541 1543 1544
1444 1443 1443 1444 1442 1439 1439 1439 1441 1443 1439 1438 1438 1436 1435 1434 1431 1432 1432 1428 1425 1424 1423 1421 1420 1420 1416 1412 1413 1414 1414 1412 1411 1415 1421 1422 1418 1415 1415 1415 1414 1417 1420 1422 1429 1435 1438 1444 1442 1439 1448 1455 1450 1448 1452 1454 1459 1469 1477 1479 1476 1470 1469 1471 1471 1471 1474 1483 1489 1491 1501 1514 1519 1520 1525 1528 1531 1533 1535 1537 1538 1539 1540 1541 1542 1542 1544 1546